This demonstration page uses our WeatherBlox Daily Observations layout. Learn more.

Left ArrowRight Arrow

47.50024, -111.30081

Hourly Observations for May 20, 2019

Temp ( °F °C ) Dew Point ( °F °C ) Humidity (%) Winds ( mph kmh ) Pressure ( in mb ) Visibility ( mi km ) Precip ( " mm )
12:53 am 00:53 Cloudy 41 5 31 -0.6 67 67 E 15 24 29.98 1015 10 16 0.00 0.00
1:53 am 01:53 Cloudy 41 5 31 -0.6 67 67 E 13 20 29.97 1015 10 16 0.00 0.00
2:53 am 02:53 Cloudy 41 5 30 -1.1 65 65 E 17 28 29.95 1014 10 16 0.00 0.00
3:53 am 03:53 Cloudy 40 4.4 30 -1.1 68 68 E 15 24 29.94 1014 10 16 0.00 0.00
4:53 am 04:53 Cloudy 39 3.9 31 -0.6 73 73 E 13 20 29.94 1014 10 16 0.00 0.00
5:53 am 05:53 Cloudy 39 3.9 32 0 76 76 ENE 9 15 29.94 1014 10 16 0.00 0.00
6:53 am 06:53 Cloudy 37 2.8 33 0.6 86 86 ENE 9 15 29.95 1014 10 16 0.00 0.00
7:53 am 07:53 Cloudy 38 3.3 33 0.6 83 83 ENE 10 17 29.95 1014 10 16 0.00 0.00
8:53 am 08:53 Cloudy 42 5.6 33 0.6 71 71 ENE 12 19 29.93 1014 10 16 0.00 0.00
9:53 am 09:53 Cloudy 46 7.8 31 -0.6 56 56 E 14 22 29.92 1013 10 16 0.00 0.00
10:53 am 10:53 Cloudy 46 7.8 32 0 58 58 NE 13 20 29.91 1013 10 16 0.00 0.00
11:53 am 11:53 Cloudy 48 8.9 32 0 54 54 E 10 17 29.90 1012 10 16 0.00 0.00
12:53 pm 12:53 Cloudy 48 8.9 32 0 54 54 E 13 20 29.90 1013 10 16 0.00 0.00
1:53 pm 13:53 Cloudy 46 7.8 34 1.1 63 63 ENE 14 22 29.91 1013 10 16 0.00 0.00
2:53 pm 14:53 Cloudy 47 8.3 35 1.7 63 63 E 18 30 29.91 1013 10 16 0.00 0.00
3:53 pm 15:53 Cloudy with Light Rain 46 7.8 35 1.7 66 66 E 18 30 29.92 1013 10 16 0.00 0.03
4:53 pm 16:53 Cloudy 46 7.8 36 2.2 68 68 ENE 14 22 29.91 1013 10 16 0.00 0.03
5:53 pm 17:53 Cloudy 47 8.3 36 2.2 66 66 E 18 30 29.91 1013 10 16 0.00 0.00
6:53 pm 18:53 Cloudy 46 7.8 37 2.8 71 71 E 16 26 29.91 1013 10 16 0.00 0.00
7:53 pm 19:53 Cloudy 45 7.2 38 3.3 77 77 E 15 24 29.90 1012 10 16 0.00 0.00
8:38 pm 20:38 Cloudy 43 6.1 38 3.3 82 82 E 13 20 29.86 1011 10 16 0.00 0.00
8:53 pm 20:53 Cloudy 43 6.1 37 2.8 80 80 E 14 22 29.88 1012 10 16 0.00 0.00
9:05 pm 21:05 Cloudy 43 6.1 37 2.8 80 80 E 12 19 29.85 1011 10 16 0.00 0.00
9:45 pm 21:45 Cloudy 43 6.1 38 3.3 82 82 E 12 19 29.86 1011 10 16 0.00 0.00
9:53 pm 21:53 Cloudy 42 5.6 37 2.8 82 82 E 12 19 29.88 1012 10 16 0.00 0.00
10:07 pm 22:07 Cloudy 41 5 36 2.2 82 82 E 13 20 29.88 1012 10 16 0.00 0.00
10:53 pm 22:53 Cloudy 41 5 36 2.2 82 82 E 14 22 29.88 1012 10 16 0.00 0.00
11:53 pm 23:53 Cloudy 41 5 37 2.8 86 86 E 7 11 29.86 1011 10 16 0.00 0.00

Powered by AerisWeather